Home   Weather   Liberia   Past weeks

Flag for Costa Rica Past Weather in Liberia, Costa Rica — Yesterday and Last 2 Weeks

Now
81 °F

Sunny.


Feels Like: 85 °F
Forecast: 69 / 91 °F
Wind: 5 mph from West

Location: Liberia/Tomas Guard

Current Time: Jan 21, 2017 at 9:37:35 am

Latest Report: Jan 21, 2017 at 9:00 am


Visibility: 10 mi

Pressure: 30.00 "Hg

Humidity: 74%

Dew Point: 72 °F

Location of LiberiaLocation

Past Weather in Liberia — Graph

°F

Liberia Temperature Yesterday

Maximum temperature yesterday: 91 °F (at 1:00 pm)
Minimum temperature yesterday: 66 °F (at 6:00 am)
Average temperature yesterday: 80 °F

High & Low Weather Summary for the Past Weeks

 TemperatureHumidityPressure
High91 °F (Jan 18, 2:00 pm)100% (Jan 21, 6:00 am)30.01 "Hg (Jan 21, 6:00 am)
Low66 °F (Jan 7, 6:00 am)38% (Jan 19, 1:00 pm)29.76 "Hg (Jan 10, 2:00 pm)
Average81 °F63%29.88 "Hg
* Reported Jan 6 8:00 am — Jan 21 8:00 am, Liberia, Weather by CustomWeather, © 2017

Note: Actual official high and low records may vary slightly from our data, if they occured in-between our weather recording intervals... More about our weather records

Advertising

Liberia Weather History for the Previous 24 Hours

Scroll right to see more
 ConditionsComfort  
Time TempWeatherWind HumidityBarometerVisibility
8:00 am
Sat, Jan 21
75 °FScattered clouds.3 mph89%30.00 "HgN/A
7:26 am72 °FScattered clouds.No wind100%29.99 "HgN/A
7:00 am72 °FFog.No wind94%29.98 "Hg1 mi
6:21 am70 °FFog.No wind100%29.97 "Hg1 mi
6:00 am70 °FFog.No wind100%29.97 "Hg1 mi
12:00 am73 °FClear.3 mph94%29.97 "Hg10 mi
11:00 pm
Fri, Jan 20
75 °FClear.2 mph89%29.97 "Hg10 mi
10:00 pm75 °FPassing clouds.2 mph89%29.97 "HgN/A
9:00 pm77 °FPassing clouds.2 mph83%29.97 "HgN/A
8:00 pm77 °FPassing clouds.2 mph89%29.95 "HgN/A
7:00 pm79 °FPassing clouds.3 mph84%29.92 "HgN/A
6:00 pm79 °FPassing clouds.8 mph84%29.89 "HgN/A
5:00 pm82 °FPassing clouds.13 mph70%29.87 "HgN/A
4:00 pm84 °FPassing clouds.13 mph66%29.85 "HgN/A
3:00 pm86 °FPassing clouds.13 mph62%29.84 "HgN/A
2:00 pm86 °FPassing clouds.13 mph59%29.85 "HgN/A
1:00 pm91 °FScattered clouds.7 mph44%29.87 "HgN/A
12:00 pm90 °FPassing clouds.8 mph46%29.90 "HgN/A
11:00 am88 °FSunny.9 mph49%29.93 "Hg10 mi
10:00 am86 °FSunny.9 mph52%29.94 "Hg10 mi
9:00 am81 °FSunny.5 mph66%29.95 "Hg10 mi
Weather by CustomWeather, © 2017

See weather overviewHow to use our weather pages